Bismarck, ND

9:20 AM CDT on September 30, 2016 (GMT -0500)
Bismarck Municipal

Weather History for KBIS - January, 2014

Change the Weather History Date:

Saturday, January 18, 2014

  Actual Average Record
Temperature  
Mean Temperature 34 °F 12 °F  
Max Temperature 38 °F 23 °F 56 °F (1908)
Min Temperature 30 °F 2 °F -44 °F (1950)
Degree Days  
Heating Degree Days 31 52  
Month to date heating degree days 917 948  
Since 1 July heating degree days 4647 4448  
Cooling Degree Days 0 0  
Month to date cooling degree days 0 0  
Year to date cooling degree days 0 0  
Moisture  
Dew Point 27 °F    
Average Humidity 73    
Maximum Humidity 82    
Minimum Humidity 64    
Precipitation  
Precipitation 0.01 in 0.01 in 0.23 in (1979)
Month to date precipitation 0.09 0.27  
Year to date precipitation 0.09 0.27  
Snow  
Snow T in 0.30 in 2.50 in (1979)
Month to date snowfall 2.8 5.6  
Since 1 July snowfall 19.9 26.1  
Snow Depth 5.00 in    
Sea Level Pressure  
Sea Level Pressure 29.88 in    
Wind  
Wind Speed 16 mph (NW)    
Max Wind Speed 35 mph    
Max Gust Speed 46 mph    
Visibility 10 miles    
Events Snow    
T = Trace of Precipitation, MM = Missing Value Source: NWS Daily Summary

Daily Weather History Graph

Daily Weather History Graph

Search for Another Location

Airport or City:

Trip Planner

Search our weather history database for the weather conditions in past years. The results will help you decide how hot, cold, wet, or windy it might be!

Date:

Astronomy

Jan. 18, 2014 Rise Set
Actual Time 8:21 AM CST 5:25 PM CST
Civil Twilight 7:47 AM CST 5:59 PM CST
Nautical Twilight 7:10 AM CST 6:37 PM CST
Astronomical Twilight 6:34 AM CST 7:13 PM CST
Moon 8:22 PM CST (1/18) 9:10 AM CST (1/18)
Length of Visible Light 10h 12m
Length of Day
9h 04m
Waning Gibbous, 94% of the Moon is Illuminated
Jan 18
Waning Gibbous
Jan 23
Last Quarter
Jan 30
New
Feb 6
First Quarter
Feb 14
Full

Hourly Weather History & Observations

Time (CST) Temp. Windchill Dew Point Humidity Pressure Visibility Wind Dir Wind Speed Gust Speed Precip Events Conditions
12:52 AM 37.0 °F 25.9 °F 28.9 °F 73% 29.69 in 10.0 mi NW 23.0 mph 29.9 mph N/A   Overcast
1:19 AM 37.0 °F 25.4 °F 30.0 °F 76% 29.63 in 4.0 mi NW 25.3 mph 38.0 mph 0.00 in Snow Light Snow
1:52 AM 37.0 °F 24.3 °F 30.0 °F 76% 29.68 in 10.0 mi NW 31.1 mph 44.9 mph 0.01 in   Overcast
2:52 AM 37.0 °F 24.9 °F 28.9 °F 73% 29.72 in 10.0 mi NW 27.6 mph 40.3 mph N/A   Overcast
3:45 AM 37.0 °F 26.4 °F 30.0 °F 76% 29.70 in 10.0 mi NNW 20.7 mph 36.8 mph N/A   Overcast
3:52 AM 37.0 °F 24.7 °F 30.0 °F 76% 29.75 in 10.0 mi NW 28.8 mph 36.8 mph N/A   Overcast
4:52 AM 36.0 °F 24.2 °F 28.9 °F 76% 29.81 in 10.0 mi NNW 24.2 mph 33.4 mph 0.00 in   Overcast
5:37 AM 35.1 °F 21.8 °F 28.9 °F 78% 29.79 in 10.0 mi NNW 29.9 mph 38.0 mph 0.00 in   Overcast
5:52 AM 35.1 °F 23.0 °F 28.9 °F 78% 29.86 in 10.0 mi NNW 24.2 mph 34.5 mph 0.00 in   Overcast
6:16 AM 35.1 °F 22.7 °F 28.9 °F 78% 29.83 in 7.0 mi NNW 25.3 mph 35.7 mph 0.00 in   Overcast
6:52 AM 33.1 °F 21.5 °F 28.0 °F 82% 29.91 in 10.0 mi North 19.6 mph 34.5 mph 0.00 in   Overcast
7:02 AM 33.1 °F 21.5 °F 27.0 °F 78% 29.87 in 10.0 mi North 19.6 mph 34.5 mph N/A   Overcast
7:52 AM 32.0 °F 20.1 °F 26.1 °F 79% 29.97 in 10.0 mi North 19.6 mph 32.2 mph N/A   Overcast
8:52 AM 32.0 °F 22.5 °F 25.0 °F 75% 30.02 in 10.0 mi North 12.7 mph 24.2 mph N/A   Overcast
9:52 AM 30.9 °F 20.7 °F 24.1 °F 76% 30.06 in 10.0 mi North 13.8 mph - N/A   Overcast
10:52 AM 30.9 °F 21.2 °F 25.0 °F 79% 30.09 in 10.0 mi NNW 12.7 mph - N/A   Overcast
11:52 AM 32.0 °F 20.8 °F 24.1 °F 73% 30.09 in 10.0 mi NW 17.3 mph 23.0 mph N/A   Overcast
12:52 PM 33.1 °F 23.0 °F 25.0 °F 72% 30.05 in 10.0 mi NW 15.0 mph - N/A   Mostly Cloudy
1:52 PM 34.0 °F 25.0 °F 27.0 °F 75% 30.04 in 10.0 mi WNW 12.7 mph - N/A   Overcast
2:52 PM 35.1 °F 25.5 °F 26.1 °F 70% 30.02 in 10.0 mi West 15.0 mph 27.6 mph N/A   Scattered Clouds
3:52 PM 37.0 °F 28.5 °F 27.0 °F 67% 29.99 in 10.0 mi West 13.8 mph - N/A   Clear
4:52 PM 36.0 °F 28.5 °F 28.0 °F 73% 29.98 in 10.0 mi West 10.4 mph - N/A   Clear
5:52 PM 34.0 °F 26.0 °F 27.0 °F 75% 29.93 in 10.0 mi WSW 10.4 mph - N/A   Clear
6:52 PM 34.0 °F 28.8 °F 26.1 °F 73% 29.92 in 10.0 mi SW 5.8 mph - N/A   Clear
7:52 PM 34.0 °F 26.0 °F 26.1 °F 73% 29.87 in 10.0 mi WSW 10.4 mph - N/A   Clear
8:52 PM 34.0 °F 24.6 °F 26.1 °F 73% 29.81 in 10.0 mi West 13.8 mph - N/A   Clear
9:52 PM 35.1 °F 31.0 °F 26.1 °F 70% 29.78 in 10.0 mi NW 4.6 mph - N/A   Clear
10:52 PM 36.0 °F 27.1 °F 27.0 °F 70% 29.75 in 10.0 mi West 13.8 mph - N/A   Clear
11:52 PM 36.0 °F 27.1 °F 27.0 °F 70% 29.72 in 10.0 mi WSW 13.8 mph - N/A   Clear